Location: Arapaho Elementary School
(32.9607°N, 96.7625°W)
Time: 12:42:29
(UTC+00:00)

Cosmos 2228 Rocket - Pass Details

Date: 04 July 2022
Orbit: 618 x 651 km, 82.5° (Epoch: 13 August)

Event Time Altitude Azimuth Distance (km) Brightness Sun altitude
Rises 09:13:45 0° 10° (N) 2,917 7.5 -22.1°
Reaches altitude 10° 09:16:23 10° 25° (NNE) 2,011 6.7 -21.7°
Maximum altitude 09:19:56 23° 77° (ENE) 1,356 5.4 -21.2°
Drops below altitude 10° 09:23:28 10° 130° (SE) 2,018 5.7 -20.7°
Sets 09:26:06 0° 145° (SE) 2,928 6.4 -20.4°
